TimeEST,TemperatureF,Dew PointF,Humidity,Sea Level PressureIn,VisibilityMPH,Wind Direction,Wind SpeedMPH,Gust SpeedMPH,PrecipitationIn,Events,Conditions,WindDirDegrees,DateUTC
12:10 AM,44.6,44.6,100,30.17,7.0,South,4.6,-,N/A,,Clear,170,2012-12-03 05:10:00
12:30 AM,44.6,44.6,100,30.17,7.0,South,3.5,-,N/A,,Clear,180,2012-12-03 05:30:00
12:55 AM,44.6,44.6,100,30.17,7.0,South,3.5,-,N/A,,Clear,180,2012-12-03 05:55:00
1:15 AM,44.6,44.6,100,30.18,7.0,Calm,Calm,-,N/A,,Clear,0,2012-12-03 06:15:00
1:35 AM,42.8,41.0,93,30.19,4.0,Calm,Calm,-,N/A,,Scattered Clouds,0,2012-12-03 06:35:00
1:55 AM,42.8,42.8,100,30.19,5.0,Calm,Calm,-,N/A,,Mostly Cloudy,0,2012-12-03 06:55:00
2:20 AM,42.8,42.8,100,30.19,5.0,SW,4.6,-,N/A,,Scattered Clouds,220,2012-12-03 07:20:00
2:40 AM,42.8,42.8,100,30.19,7.0,SSW,4.6,-,N/A,,Clear,200,2012-12-03 07:40:00
3:00 AM,41.0,41.0,100,30.19,4.0,Calm,Calm,-,N/A,,Clear,0,2012-12-03 08:00:00
3:20 AM,42.8,42.8,100,30.19,5.0,South,3.5,-,N/A,,Clear,170,2012-12-03 08:20:00
3:45 AM,42.8,42.8,100,30.19,7.0,South,3.5,-,N/A,,Scattered Clouds,170,2012-12-03 08:45:00
4:05 AM,41.0,41.0,100,30.19,5.0,SSE,3.5,-,N/A,,Clear,160,2012-12-03 09:05:00
4:25 AM,41.0,41.0,100,30.19,5.0,Calm,Calm,-,N/A,,Clear,0,2012-12-03 09:25:00
4:45 AM,39.2,39.2,100,30.20,3.0,SSW,3.5,-,N/A,,Clear,210,2012-12-03 09:45:00
5:10 AM,39.2,39.2,100,30.20,4.0,Calm,Calm,-,N/A,,Clear,0,2012-12-03 10:10:00
5:30 AM,39.2,39.2,100,30.20,4.0,South,3.5,-,N/A,,Clear,190,2012-12-03 10:30:00
5:50 AM,41.0,41.0,100,30.21,3.0,SSW,3.5,-,N/A,,Clear,200,2012-12-03 10:50:00
6:49 AM,39.2,39.2,100,30.23,7.0,Calm,Calm,-,N/A,,Clear,0,2012-12-03 11:49:00
7:52 AM,39.2,39.2,100,30.26,7.0,Calm,Calm,-,N/A,,Clear,0,2012-12-03 12:52:00
8:45 AM,46.4,46.4,100,30.28,10.0,Calm,Calm,-,N/A,,Clear,0,2012-12-03 13:45:00
9:49 AM,57.2,51.8,82,30.28,10.0,Calm,Calm,-,N/A,,Scattered Clouds,0,2012-12-03 14:49:00
10:49 AM,66.2,55.4,68,30.28,10.0,West,3.5,-,N/A,,Clear,260,2012-12-03 15:49:00
11:51 AM,66.2,55.4,68,30.25,10.0,SW,5.8,-,N/A,,Clear,220,2012-12-03 16:51:00
12:50 PM,69.8,55.4,60,30.22,10.0,SW,5.8,-,N/A,,Mostly Cloudy,230,2012-12-03 17:50:00
1:47 PM,69.8,55.4,60,30.22,10.0,WSW,4.6,-,N/A,,Mostly Cloudy,240,2012-12-03 18:47:00
2:59 PM,66.2,57.2,73,30.22,10.0,Calm,Calm,-,N/A,,Mostly Cloudy,0,2012-12-03 19:59:00
3:45 PM,66.2,55.4,68,30.22,10.0,Calm,Calm,-,N/A,,Overcast,0,2012-12-03 20:45:00
4:50 PM,59.0,53.6,82,30.22,10.0,Calm,Calm,-,N/A,,Scattered Clouds,0,2012-12-03 21:50:00
5:50 PM,53.6,51.8,94,30.24,10.0,Calm,Calm,-,N/A,,Mostly Cloudy,0,2012-12-03 22:50:00
7:50 PM,51.8,50.0,94,30.25,10.0,Calm,Calm,-,N/A,,Scattered Clouds,0,2012-12-04 00:50:00
8:00 PM,50.0,50.0,100,30.25,10.0,Calm,Calm,-,N/A,,Scattered Clouds,0,2012-12-04 01:00:00
8:20 PM,50.0,50.0,100,30.25,10.0,Calm,Calm,-,N/A,,Mostly Cloudy,0,2012-12-04 01:20:00
8:45 PM,50.0,50.0,100,30.25,10.0,Calm,Calm,-,N/A,,Overcast,0,2012-12-04 01:45:00
9:05 PM,50.0,50.0,100,30.25,10.0,Calm,Calm,-,N/A,,Overcast,0,2012-12-04 02:05:00
9:25 PM,51.8,51.8,100,30.25,10.0,Calm,Calm,-,N/A,,Overcast,0,2012-12-04 02:25:00
9:45 PM,51.8,50.0,94,30.25,10.0,Calm,Calm,-,N/A,,Overcast,0,2012-12-04 02:45:00
10:10 PM,51.8,51.8,100,30.25,10.0,South,3.5,-,N/A,,Overcast,170,2012-12-04 03:10:00
10:30 PM,50.0,50.0,100,30.24,10.0,Calm,Calm,-,N/A,,Mostly Cloudy,0,2012-12-04 03:30:00
10:50 PM,50.0,48.2,94,30.25,10.0,Calm,Calm,-,N/A,,Mostly Cloudy,0,2012-12-04 03:50:00
11:10 PM,46.4,46.4,100,30.25,7.0,Calm,Calm,-,N/A,,Mostly Cloudy,0,2012-12-04 04:10:00
11:35 PM,48.2,48.2,100,30.24,10.0,Calm,Calm,-,N/A,,Mostly Cloudy,0,2012-12-04 04:35:00
11:55 PM,46.4,46.4,100,30.24,7.0,Calm,Calm,-,N/A,,Overcast,0,2012-12-04 04:55:00